When you browse on this site, cookies collect data to enhance your experience and personalize the content and advertising you see.
Visit our Privacy Policy to learn more. By continuing to use the site, you agree to this use of cookies and data.
  • In Slovakia
  • List of Countries
  • For 7 days
  • Water Temperature
  • Satellite Maps
  • Weather Map
  • Weather Widgets
  • user-avatar
    Login

    Hourly Weather Oran

    Today, 10 December, Monday

    Time Temperature Precipitation Wind Pressure Humidity
    00:00 +14°C° 0 mm 0 mps 760 mmHg 55%
    01:00 +14°C° 0 mm 0 mps 760 mmHg 54%
    02:00 +14°C° 0 mm 0 mps 759 mmHg 54%
    03:00 +13°C° 0 mm 0 mps 759 mmHg 53%
    04:00 +13°C° 0 mm 0 mps 759 mmHg 53%
    05:00 +14°C° 0 mm 1 mps 759 mmHg 52%
    06:00 +14°C° 0 mm 1 mps 759 mmHg 51%
    07:00 +16°C° 0 mm 1 mps 759 mmHg 47%
    08:00 +18°C° 0 mm 2 mps 760 mmHg 43%
    09:00 +19°C° 0 mm 2 mps 760 mmHg 40%
    10:00 +20°C° 0 mm 2 mps 760 mmHg 37%
    11:00 +23°C° 0 mm 2 mps 760 mmHg 33%
    12:00 +24°C° 0 mm 2 mps 760 mmHg 30%
    13:00 +24°C° 0 mm 3 mps 759 mmHg 32%
    14:00 +23°C° 0 mm 4 mps 759 mmHg 33%
    15:00 +23°C° 0 mm 4 mps 758 mmHg 34%
    16:00 +21°C° 0 mm 4 mps 758 mmHg 40%
    17:00 +20°C° 0 mm 4 mps 758 mmHg 47%
    18:00 +18°C° 0 mm 4 mps 758 mmHg 53%
    19:00 +17°C° 0 mm 4 mps 758 mmHg 55%
    20:00 +17°C° 0 mm 3 mps 758 mmHg 57%
    21:00 +16°C° 0 mm 3 mps 758 mmHg 59%
    22:00 +16°C° 0 mm 3 mps 758 mmHg 60%
    23:00 +16°C° 0 mm 3 mps 758 mmHg 60%

    Tomorrow, 11 December, Tuesday

    Time Temperature Precipitation Wind Pressure Humidity
    00:00 +15°C° 0 mm 2 mps 758 mmHg 61%
    01:00 +15°C° 0 mm 2 mps 757 mmHg 62%
    02:00 +15°C° 0 mm 2 mps 757 mmHg 64%
    03:00 +14°C° 0 mm 2 mps 757 mmHg 66%
    04:00 +14°C° 0 mm 2 mps 757 mmHg 68%
    05:00 +13°C° 0 mm 2 mps 757 mmHg 69%
    06:00 +13°C° 0 mm 2 mps 757 mmHg 71%
    07:00 +15°C° 0 mm 1 mps 757 mmHg 64%
    08:00 +18°C° 0 mm 1 mps 757 mmHg 57%
    09:00 +19°C° 0 mm 1 mps 757 mmHg 50%
    10:00 +20°C° 0 mm 1 mps 757 mmHg 47%
    11:00 +21°C° 0 mm 1 mps 757 mmHg 44%
    12:00 +22°C° 0 mm 1 mps 756 mmHg 41%
    13:00 +21°C° 0 mm 2 mps 756 mmHg 43%
    14:00 +21°C° 0 mm 2 mps 756 mmHg 46%
    15:00 +21°C° 0 mm 2 mps 756 mmHg 48%
    16:00 +19°C° 0 mm 2 mps 756 mmHg 56%
    17:00 +18°C° 0 mm 2 mps 756 mmHg 64%
    18:00 +17°C° 0 mm 2 mps 756 mmHg 72%
    19:00 +16°C° 0 mm 2 mps 756 mmHg 74%
    20:00 +16°C° 0 mm 2 mps 756 mmHg 76%
    21:00 +15°C° 0 mm 2 mps 756 mmHg 78%
    22:00 +15°C° 0 mm 2 mps 756 mmHg 78%
    23:00 +14°C° 0 mm 3 mps 756 mmHg 79%

    Day after tomorrow, 12 December, Wednesday

    Time Temperature Precipitation Wind Pressure Humidity
    00:00 +14°C° 0 mm 3 mps 756 mmHg 79%
    01:00 +14°C° 0 mm 3 mps 756 mmHg 78%
    02:00 +13°C° 0 mm 3 mps 756 mmHg 78%
    03:00 +13°C° 0 mm 3 mps 756 mmHg 77%
    04:00 +13°C° 0 mm 3 mps 756 mmHg 77%
    05:00 +13°C° 0 mm 3 mps 756 mmHg 77%
    06:00 +12°C° 0 mm 3 mps 756 mmHg 77%
    07:00 +14°C° 0 mm 3 mps 756 mmHg 70%
    08:00 +16°C° 0 mm 3 mps 756 mmHg 63%
    09:00 +18°C° 0 mm 4 mps 757 mmHg 56%
    10:00 +18°C° 0 mm 4 mps 756 mmHg 53%
    11:00 +19°C° 0 mm 4 mps 756 mmHg 49%
    12:00 +20°C° 0 mm 4 mps 756 mmHg 46%
    13:00 +20°C° 0 mm 3 mps 755 mmHg 47%
    14:00 +20°C° 0 mm 3 mps 755 mmHg 48%
    15:00 +20°C° 0 mm 3 mps 754 mmHg 49%
    16:00 +19°C° 0 mm 3 mps 754 mmHg 57%
    17:00 +18°C° 0 mm 2 mps 754 mmHg 65%
    18:00 +16°C° 0 mm 2 mps 754 mmHg 72%
    19:00 +16°C° 0 mm 2 mps 754 mmHg 72%
    20:00 +16°C° 0 mm 3 mps 754 mmHg 72%
    21:00 +14°C° 0 mm 3 mps 754 mmHg 71%
    22:00 +14°C° 0 mm 3 mps 754 mmHg 71%
    23:00 +14°C° 0 mm 3 mps 754 mmHg 72%

    13 December, Thursday

    Time Temperature Precipitation Wind Pressure Humidity
    00:00 +14°C° 0 mm 4 mps 754 mmHg 72%
    01:00 +13°C° 0 mm 4 mps 754 mmHg 73%
    02:00 +13°C° 0 mm 5 mps 754 mmHg 75%
    03:00 +13°C° 0 mm 5 mps 754 mmHg 76%
    04:00 +13°C° 0 mm 6 mps 754 mmHg 77%
    05:00 +13°C° 0 mm 6 mps 754 mmHg 78%
    06:00 +13°C° 0 mm 6 mps 753 mmHg 78%
    07:00 +14°C° 0 mm 6 mps 754 mmHg 74%
    08:00 +15°C° 0 mm 7 mps 754 mmHg 70%
    09:00 +15°C° 0 mm 7 mps 754 mmHg 66%
    10:00 +17°C° 0 mm 8 mps 754 mmHg 61%
    11:00 +18°C° 0 mm 8 mps 754 mmHg 56%
    12:00 +19°C° 0 mm 9 mps 754 mmHg 51%
    13:00 +19°C° 0 mm 9 mps 754 mmHg 50%
    14:00 +19°C° 0 mm 9 mps 753 mmHg 49%
    15:00 +19°C° 0 mm 9 mps 753 mmHg 48%
    16:00 +18°C° 0 mm 8 mps 753 mmHg 53%
    17:00 +17°C° 0 mm 7 mps 754 mmHg 58%
    18:00 +16°C° 0 mm 6 mps 754 mmHg 63%
    19:00 +16°C° 0 mm 7 mps 754 mmHg 64%
    20:00 +16°C° 0 mm 7 mps 755 mmHg 66%
    21:00 +16°C° 0 mm 7 mps 755 mmHg 67%
    22:00 +16°C° 0 mm 7 mps 755 mmHg 72%
    23:00 +16°C° 0 mm 8 mps 755 mmHg 78%

    14 December, Friday

    Time Temperature Precipitation Wind Pressure Humidity
    00:00 +15°C° 0 mm 8 mps 755 mmHg 83%
    01:00 +15°C° 0.1 mm 8 mps 755 mmHg 83%
    02:00 +15°C° 0.1 mm 8 mps 755 mmHg 83%
    03:00 +15°C° 0.1 mm 8 mps 755 mmHg 83%
    04:00 +15°C° 0.1 mm 7 mps 756 mmHg 83%
    05:00 +15°C° 0.1 mm 6 mps 756 mmHg 83%
    06:00 +15°C° 0.1 mm 6 mps 756 mmHg 82%
    07:00 +15°C° 0 mm 6 mps 756 mmHg 78%
    08:00 +16°C° 0 mm 6 mps 757 mmHg 74%
    09:00 +16°C° 0 mm 6 mps 758 mmHg 70%
    10:00 +17°C° 0 mm 6 mps 758 mmHg 66%
    11:00 +17°C° 0 mm 7 mps 758 mmHg 63%
    12:00 +18°C° 0 mm 8 mps 758 mmHg 59%
    13:00 +18°C° 0 mm 8 mps 758 mmHg 59%
    14:00 +18°C° 0 mm 8 mps 758 mmHg 58%
    15:00 +18°C° 0 mm 8 mps 757 mmHg 58%
    16:00 +17°C° 0 mm 7 mps 758 mmHg 62%
    17:00 +16°C° 0 mm 6 mps 758 mmHg 67%
    18:00 +15°C° 0 mm 5 mps 758 mmHg 71%
    19:00 +15°C° 0 mm 5 mps 759 mmHg 72%
    20:00 +15°C° 0 mm 5 mps 759 mmHg 73%
    21:00 +14°C° 0 mm 5 mps 759 mmHg 74%
    22:00 +14°C° 0 mm 5 mps 759 mmHg 71%
    23:00 +14°C° 0 mm 5 mps 759 mmHg 69%

    15 December, Saturday

    Time Temperature Precipitation Wind Pressure Humidity
    00:00 +14°C° 0 mm 5 mps 759 mmHg 66%
    01:00 +14°C° 0 mm 4 mps 759 mmHg 64%
    02:00 +14°C° 0 mm 4 mps 758 mmHg 62%
    03:00 +14°C° 0 mm 3 mps 758 mmHg 61%
    04:00 +14°C° 0 mm 3 mps 758 mmHg 60%
    05:00 +14°C° 0 mm 3 mps 758 mmHg 59%
    06:00 +13°C° 0 mm 3 mps 759 mmHg 58%
    07:00 +16°C° 0 mm 3 mps 759 mmHg 54%
    08:00 +17°C° 0 mm 3 mps 759 mmHg 50%
    09:00 +19°C° 0 mm 3 mps 760 mmHg 46%
    10:00 +20°C° 0 mm 3 mps 759 mmHg 44%
    11:00 +21°C° 0 mm 3 mps 759 mmHg 41%
    12:00 +22°C° 0 mm 3 mps 759 mmHg 38%
    13:00 +22°C° 0 mm 3 mps 759 mmHg 39%
    14:00 +22°C° 0 mm 3 mps 758 mmHg 39%
    15:00 +24°C° 0 mm 3 mps 758 mmHg 39%
    16:00 +21°C° 0 mm 2 mps 758 mmHg 46%
    17:00 +19°C° 0 mm 2 mps 758 mmHg 53%
    18:00 +18°C° 0 mm 1 mps 759 mmHg 59%
    19:00 +18°C° 0 mm 1 mps 759 mmHg 60%
    20:00 +18°C° 0 mm 1 mps 759 mmHg 60%
    21:00 +16°C° 0 mm 1 mps 759 mmHg 60%
    22:00 +16°C° 0 mm 1 mps 759 mmHg 59%
    23:00 +16°C° 0 mm 1 mps 759 mmHg 59%
    Show more